Location: Arborea
(39.7744°N, 8.5819°E)
Time: 07:15:17
(UTC+00:00)

Cosmos 2251 Rocket - Pass Details

Date: 24 October 2021
Orbit: 765 x 791 km, 74.0° (Epoch: 02 December)

Event Time Altitude Azimuth Distance (km) Brightness Sun altitude
Rises 18:12:35 0° 342° (NNW) 3,246 7.0 -19.7°
Reaches altitude 10° 18:14:58 10° 344° (NNW) 2,313 6.2 -20.1°
Maximum altitude 18:20:13 78° 70° (ENE) 787 3.3 -21.1°
Enters shadow 18:23:30 23° 155° (SSE) 1,573 4.8 -21.8°
